Time,TemperatureF,DewpointF,PressureIn,WindDirection,WindDirectionDegrees,WindSpeedMPH,WindSpeedGustMPH,Humidity,HourlyPrecipIn,Conditions,Clouds,dailyrainin,SoftwareType,DateUTC
2013-05-15 00:02:00,73.0,48.0,29.95,South,180,6.0,11.0,40,-99.99,,,-99.99,,2013-05-15 05:02:00,
2013-05-15 00:12:00,73.0,48.0,29.96,South,185,6.0,9.0,41,-99.99,,,-99.99,,2013-05-15 05:12:00,
2013-05-15 00:22:00,73.0,48.0,29.96,South,185,6.0,9.0,41,-99.99,,,-99.99,,2013-05-15 05:22:00,
2013-05-15 00:32:00,72.0,48.0,29.96,SSW,195,7.0,9.0,43,-99.99,,,-99.99,,2013-05-15 05:32:00,
2013-05-15 00:42:00,72.0,49.0,29.97,South,180,7.0,11.0,44,-99.99,,,-99.99,,2013-05-15 05:42:00,
2013-05-15 00:52:00,72.0,49.0,29.97,South,180,7.0,11.0,44,-99.99,,,-99.99,,2013-05-15 05:52:00,
2013-05-15 01:02:00,72.0,49.0,29.97,South,185,8.0,13.0,45,-99.99,,,-99.99,,2013-05-15 06:02:00,
2013-05-15 01:11:00,72.0,49.0,29.98,SSW,195,10.0,13.0,45,-99.99,,,-99.99,,2013-05-15 06:11:00,
2013-05-15 01:21:00,72.0,49.0,29.98,SSW,195,10.0,13.0,45,-99.99,,,-99.99,,2013-05-15 06:21:00,
2013-05-15 01:32:00,71.0,50.0,29.97,South,190,9.0,13.0,46,-99.99,,,-99.99,,2013-05-15 06:32:00,
2013-05-15 01:42:00,71.0,50.0,29.97,SSW,195,8.0,14.0,47,-99.99,,,-99.99,,2013-05-15 06:42:00,
2013-05-15 01:52:00,71.0,50.0,29.97,SSW,195,8.0,14.0,47,-99.99,,,-99.99,,2013-05-15 06:52:00,
2013-05-15 02:01:00,70.0,50.0,29.97,South,180,8.0,12.0,49,-99.99,,,-99.99,,2013-05-15 07:01:00,
2013-05-15 02:11:00,69.0,50.0,29.97,South,175,7.0,11.0,50,-99.99,,,-99.99,,2013-05-15 07:11:00,
2013-05-15 02:22:00,69.0,50.0,29.97,South,175,7.0,11.0,50,-99.99,,,-99.99,,2013-05-15 07:22:00,
2013-05-15 02:32:00,68.0,50.0,29.97,South,180,6.0,10.0,53,-99.99,,,-99.99,,2013-05-15 07:32:00,
2013-05-15 02:41:00,68.0,51.0,29.97,South,170,7.0,10.0,54,-99.99,,,-99.99,,2013-05-15 07:41:00,
2013-05-15 02:52:00,68.0,51.0,29.97,South,170,7.0,10.0,54,-99.99,,,-99.99,,2013-05-15 07:52:00,
2013-05-15 03:02:00,68.0,51.0,29.96,South,185,8.0,11.0,55,-99.99,,,-99.99,,2013-05-15 08:02:00,
2013-05-15 03:12:00,68.0,51.0,29.96,South,185,9.0,13.0,54,-99.99,,,-99.99,,2013-05-15 08:12:00,
2013-05-15 03:21:00,68.0,51.0,29.96,South,185,9.0,13.0,54,-99.99,,,-99.99,,2013-05-15 08:21:00,
2013-05-15 03:32:00,68.0,51.0,29.96,South,175,9.0,12.0,54,-99.99,,,-99.99,,2013-05-15 08:32:00,
2013-05-15 03:42:00,67.0,50.0,29.96,South,180,9.0,14.0,54,-99.99,,,-99.99,,2013-05-15 08:42:00,
2013-05-15 03:53:00,67.0,50.0,29.96,South,180,9.0,14.0,54,-99.99,,,-99.99,,2013-05-15 08:53:00,
2013-05-15 04:01:00,67.0,50.0,29.95,South,180,9.0,12.0,55,-99.99,,,-99.99,,2013-05-15 09:01:00,
2013-05-15 04:11:00,67.0,50.0,29.96,South,180,10.0,14.0,54,-99.99,,,-99.99,,2013-05-15 09:11:00,
2013-05-15 04:21:00,67.0,50.0,29.96,South,180,10.0,14.0,54,-99.99,,,-99.99,,2013-05-15 09:21:00,
2013-05-15 04:33:00,67.0,50.0,29.96,South,185,9.0,13.0,54,-99.99,,,-99.99,,2013-05-15 09:33:00,
2013-05-15 04:42:00,66.0,50.0,29.96,South,180,10.0,13.0,55,-99.99,,,-99.99,,2013-05-15 09:42:00,
2013-05-15 04:53:00,66.0,50.0,29.96,South,180,10.0,13.0,55,-99.99,,,-99.99,,2013-05-15 09:53:00,
2013-05-15 05:02:00,66.0,50.0,29.96,South,170,8.0,12.0,56,-99.99,,,-99.99,,2013-05-15 10:02:00,
2013-05-15 05:12:00,66.0,49.0,29.96,South,180,10.0,14.0,55,-99.99,,,-99.99,,2013-05-15 10:12:00,
2013-05-15 05:22:00,66.0,49.0,29.96,South,180,10.0,14.0,55,-99.99,,,-99.99,,2013-05-15 10:22:00,
2013-05-15 05:32:00,66.0,49.0,29.96,South,180,10.0,13.0,54,-99.99,,,-99.99,,2013-05-15 10:32:00,
2013-05-15 05:42:00,66.0,49.0,29.96,South,185,10.0,14.0,55,-99.99,,,-99.99,,2013-05-15 10:42:00,
2013-05-15 05:52:00,66.0,49.0,29.96,South,185,10.0,14.0,55,-99.99,,,-99.99,,2013-05-15 10:52:00,
2013-05-15 06:10:00,65.0,49.0,29.95,South,175,9.0,13.0,56,-99.99,,,-99.99,,2013-05-15 11:10:00,
2013-05-15 06:27:00,65.0,49.0,29.96,South,180,9.0,13.0,56,-99.99,,,-99.99,,2013-05-15 11:27:00,
2013-05-15 06:37:00,65.0,49.0,29.96,South,175,8.0,12.0,57,-99.99,,,-99.99,,2013-05-15 11:37:00,
2013-05-15 06:47:00,64.0,49.0,29.96,South,185,9.0,12.0,58,-99.99,,,-99.99,,2013-05-15 11:47:00,
2013-05-15 07:15:00,64.0,49.0,29.97,South,175,8.0,13.0,58,-99.99,,,-99.99,,2013-05-15 12:15:00,
2013-05-15 07:28:00,64.0,49.0,29.97,South,175,8.0,13.0,58,-99.99,,,-99.99,,2013-05-15 12:28:00,
2013-05-15 07:36:00,65.0,50.0,29.98,SSE,150,6.0,9.0,58,-99.99,,,-99.99,,2013-05-15 12:36:00,
2013-05-15 07:47:00,65.0,50.0,29.98,SSE,165,6.0,10.0,59,-99.99,,,-99.99,,2013-05-15 12:47:00,
2013-05-15 07:54:00,65.0,50.0,29.98,SSE,165,6.0,10.0,59,-99.99,,,-99.99,,2013-05-15 12:54:00,
2013-05-15 08:09:00,66.0,51.0,29.98,SSE,165,7.0,10.0,58,-99.99,,,-99.99,,2013-05-15 13:09:00,
2013-05-15 08:17:00,67.0,51.0,29.98,South,170,8.0,11.0,57,-99.99,,,-99.99,,2013-05-15 13:17:00,
2013-05-15 08:26:00,67.0,51.0,29.98,South,170,8.0,11.0,57,-99.99,,,-99.99,,2013-05-15 13:26:00,
2013-05-15 08:36:00,68.0,52.0,29.97,South,180,11.0,15.0,57,-99.99,,,-99.99,,2013-05-15 13:36:00,
2013-05-15 08:46:00,69.0,53.0,29.97,South,180,8.0,17.0,57,-99.99,,,-99.99,,2013-05-15 13:46:00,
2013-05-15 09:05:00,70.0,54.0,29.97,South,185,9.0,18.0,57,-99.99,,,-99.99,,2013-05-15 14:05:00,
2013-05-15 09:14:00,70.0,54.0,29.97,SSW,195,11.0,20.0,57,-99.99,,,-99.99,,2013-05-15 14:14:00,
2013-05-15 09:26:00,70.0,54.0,29.97,SSW,195,11.0,20.0,57,-99.99,,,-99.99,,2013-05-15 14:26:00,
2013-05-15 09:37:00,71.0,55.0,29.98,South,170,11.0,18.0,57,-99.99,,,-99.99,,2013-05-15 14:37:00,
2013-05-15 09:53:00,72.0,56.0,29.97,South,190,10.0,17.0,58,-99.99,,,-99.99,,2013-05-15 14:53:00,
2013-05-15 10:08:00,73.0,57.0,29.97,South,185,10.0,16.0,57,-99.99,,,-99.99,,2013-05-15 15:08:00,
2013-05-15 10:16:00,73.0,57.0,29.97,South,180,11.0,18.0,58,-99.99,,,-99.99,,2013-05-15 15:16:00,
2013-05-15 10:27:00,73.0,57.0,29.97,South,180,11.0,18.0,58,-99.99,,,-99.99,,2013-05-15 15:27:00,
2013-05-15 10:36:00,74.0,58.0,29.96,SSW,210,8.0,18.0,58,-99.99,,,-99.99,,2013-05-15 15:36:00,
2013-05-15 10:47:00,74.0,59.0,29.97,SW,215,7.0,17.0,58,-99.99,,,-99.99,,2013-05-15 15:47:00,
2013-05-15 10:56:00,74.0,59.0,29.97,SW,215,7.0,17.0,58,-99.99,,,-99.99,,2013-05-15 15:56:00,
2013-05-15 11:10:00,75.0,59.0,29.96,SSW,210,11.0,18.0,58,-99.99,,,-99.99,,2013-05-15 16:10:00,
2013-05-15 11:20:00,78.0,62.0,29.96,SSW,205,9.0,16.0,58,-99.99,,,-99.99,,2013-05-15 16:20:00,
2013-05-15 11:21:00,76.0,60.0,29.96,South,190,10.0,15.0,58,-99.99,,,-99.99,,2013-05-15 16:21:00,
2013-05-15 11:27:00,76.0,60.0,29.96,South,190,10.0,15.0,58,-99.99,,,-99.99,,2013-05-15 16:27:00,
2013-05-15 11:36:00,76.0,61.0,29.96,SW,230,9.0,16.0,58,-99.99,,,-99.99,,2013-05-15 16:36:00,
2013-05-15 11:47:00,77.0,61.0,29.96,SW,215,10.0,17.0,58,-99.99,,,-99.99,,2013-05-15 16:47:00,
2013-05-15 11:53:00,77.0,61.0,29.96,SW,215,10.0,17.0,58,-99.99,,,-99.99,,2013-05-15 16:53:00,
2013-05-15 12:09:00,78.0,62.0,29.96,SSW,205,9.0,16.0,58,-99.99,,,-99.99,,2013-05-15 17:09:00,
2013-05-15 12:49:00,80.0,62.0,29.95,South,190,9.0,16.0,56,-99.99,,,-99.99,,2013-05-15 17:49:00,
2013-05-15 12:59:00,80.0,62.0,29.95,South,190,9.0,16.0,56,-99.99,,,-99.99,,2013-05-15 17:59:00,
2013-05-15 13:00:00,80.0,63.0,29.94,South,190,8.0,17.0,57,-99.99,,,-99.99,,2013-05-15 18:00:00,
2013-05-15 13:06:00,80.0,62.0,29.95,SW,220,9.0,16.0,55,-99.99,,,-99.99,,2013-05-15 18:06:00,
2013-05-15 13:15:00,80.0,62.0,29.95,SSW,210,7.0,14.0,55,-99.99,,,-99.99,,2013-05-15 18:15:00,
2013-05-15 13:26:00,80.0,62.0,29.95,SSW,210,7.0,14.0,55,-99.99,,,-99.99,,2013-05-15 18:26:00,
2013-05-15 13:30:00,80.0,62.0,29.93,South,185,9.0,14.0,55,-99.99,,,-99.99,,2013-05-15 18:30:00,
2013-05-15 13:37:00,80.0,63.0,29.94,South,175,6.0,15.0,55,-99.99,,,-99.99,,2013-05-15 18:37:00,
2013-05-15 13:46:00,80.0,63.0,29.94,South,190,8.0,17.0,57,-99.99,,,-99.99,,2013-05-15 18:46:00,
2013-05-15 13:54:00,80.0,63.0,29.94,South,190,8.0,17.0,57,-99.99,,,-99.99,,2013-05-15 18:54:00,
2013-05-15 14:15:00,80.0,62.0,29.93,South,185,9.0,14.0,55,-99.99,,,-99.99,,2013-05-15 19:15:00,
2013-05-15 14:37:00,82.0,64.0,29.92,SSW,205,6.0,17.0,55,-99.99,,,-99.99,,2013-05-15 19:37:00,
2013-05-15 14:45:00,81.0,63.0,29.92,South,185,8.0,15.0,54,-99.99,,,-99.99,,2013-05-15 19:45:00,
2013-05-15 14:54:00,81.0,63.0,29.92,South,185,8.0,15.0,54,-99.99,,,-99.99,,2013-05-15 19:54:00,
2013-05-15 15:18:00,80.0,62.0,29.91,South,180,14.0,19.0,55,-99.99,,,-99.99,,2013-05-15 20:18:00,
2013-05-15 15:38:00,80.0,63.0,29.91,SW,220,8.0,18.0,56,-99.99,,,-99.99,,2013-05-15 20:38:00,
2013-05-15 15:46:00,80.0,63.0,29.91,SSW,210,7.0,15.0,56,-99.99,,,-99.99,,2013-05-15 20:46:00,
2013-05-15 15:53:00,80.0,63.0,29.91,SSW,210,7.0,15.0,56,-99.99,,,-99.99,,2013-05-15 20:53:00,
2013-05-15 16:07:00,80.0,63.0,29.90,South,175,11.0,15.0,56,-99.99,,,-99.99,,2013-05-15 21:07:00,
2013-05-15 16:19:00,80.0,63.0,29.90,South,175,9.0,15.0,57,-99.99,,,-99.99,,2013-05-15 21:19:00,
2013-05-15 16:27:00,80.0,63.0,29.90,South,175,9.0,15.0,57,-99.99,,,-99.99,,2013-05-15 21:27:00,
2013-05-15 16:56:00,78.0,64.0,29.90,WSW,240,8.0,17.0,62,-99.99,,,-99.99,,2013-05-15 21:56:00,
2013-05-15 17:10:00,79.0,63.0,29.89,SW,220,7.0,12.0,58,-99.99,,,-99.99,,2013-05-15 22:10:00,
2013-05-15 17:18:00,79.0,63.0,29.89,South,190,8.0,14.0,59,-99.99,,,-99.99,,2013-05-15 22:18:00,
2013-05-15 17:28:00,79.0,63.0,29.89,South,190,8.0,14.0,59,-99.99,,,-99.99,,2013-05-15 22:28:00,
2013-05-15 17:54:00,78.0,63.0,29.89,South,190,5.0,13.0,59,-99.99,,,-99.99,,2013-05-15 22:54:00,
2013-05-15 18:07:00,77.0,63.0,29.89,SSW,210,10.0,16.0,61,-99.99,,,-99.99,,2013-05-15 23:07:00,
2013-05-15 18:27:00,76.0,62.0,29.90,SSW,205,10.0,17.0,62,-99.99,,,-99.99,,2013-05-15 23:27:00,
2013-05-15 18:38:00,75.0,63.0,29.90,SSW,195,14.0,20.0,65,-99.99,,,-99.99,,2013-05-15 23:38:00,
2013-05-15 18:48:00,75.0,64.0,29.90,SSW,210,11.0,15.0,69,-99.99,,,-99.99,,2013-05-15 23:48:00,
2013-05-15 18:54:00,75.0,64.0,29.90,SSW,210,11.0,15.0,69,-99.99,,,-99.99,,2013-05-15 23:54:00,
2013-05-15 19:17:00,71.0,64.0,29.91,SSW,210,11.0,16.0,79,-99.99,,,-99.99,,2013-05-16 00:17:00,
2013-05-15 19:25:00,71.0,64.0,29.91,SSW,210,11.0,16.0,79,-99.99,,,-99.99,,2013-05-16 00:25:00,
2013-05-15 19:35:00,66.0,61.0,29.93,SW,230,8.0,24.0,83,-99.99,,,-99.99,,2013-05-16 00:35:00,
2013-05-15 19:49:00,66.0,61.0,29.92,South,185,10.0,20.0,84,-99.99,,,-99.99,,2013-05-16 00:49:00,
2013-05-15 19:54:00,66.0,61.0,29.92,South,185,10.0,20.0,84,-99.99,,,-99.99,,2013-05-16 00:54:00,
2013-05-15 20:06:00,65.0,61.0,29.92,SW,215,7.0,13.0,84,-99.99,,,-99.99,,2013-05-16 01:06:00,
2013-05-15 20:16:00,66.0,61.0,29.93,South,185,8.0,13.0,84,-99.99,,,-99.99,,2013-05-16 01:16:00,
2013-05-15 20:28:00,66.0,61.0,29.93,South,185,8.0,13.0,84,-99.99,,,-99.99,,2013-05-16 01:28:00,
2013-05-15 20:48:00,65.0,60.0,29.92,SE,135,6.0,11.0,86,-99.99,,,-99.99,,2013-05-16 01:48:00,
2013-05-15 20:50:00,63.0,60.0,29.92,ESE,105,5.0,8.0,87,-99.99,,,-99.99,,2013-05-16 01:50:00,
2013-05-15 20:56:00,65.0,60.0,29.92,SE,135,6.0,11.0,86,-99.99,,,-99.99,,2013-05-16 01:56:00,
2013-05-15 21:00:00,64.0,60.0,29.92,ESE,110,5.0,8.0,87,-99.99,,,-99.99,,2013-05-16 02:00:00,
2013-05-15 21:07:00,64.0,60.0,29.92,ESE,105,8.0,14.0,88,-99.99,,,-99.99,,2013-05-16 02:07:00,
2013-05-15 21:16:00,63.0,60.0,29.92,SE,125,8.0,16.0,88,-99.99,,,-99.99,,2013-05-16 02:16:00,
2013-05-15 21:27:00,63.0,60.0,29.92,SE,125,8.0,16.0,88,-99.99,,,-99.99,,2013-05-16 02:27:00,
2013-05-15 21:37:00,63.0,60.0,29.92,ESE,105,5.0,8.0,87,-99.99,,,-99.99,,2013-05-16 02:37:00,
2013-05-15 21:46:00,63.0,60.0,29.92,ESE,105,5.0,8.0,87,-99.99,,,-99.99,,2013-05-16 02:46:00,
2013-05-15 22:16:00,63.0,60.0,29.92,ESE,120,5.0,7.0,88,-99.99,,,-99.99,,2013-05-16 03:16:00,
2013-05-15 22:25:00,63.0,60.0,29.92,ESE,120,5.0,7.0,88,-99.99,,,-99.99,,2013-05-16 03:25:00,
2013-05-15 22:36:00,63.0,60.0,29.92,SSE,150,6.0,7.0,89,-99.99,,,-99.99,,2013-05-16 03:36:00,
2013-05-15 22:54:00,63.0,60.0,29.92,SE,145,6.0,8.0,89,-99.99,,,-99.99,,2013-05-16 03:54:00,
2013-05-15 23:02:00,63.0,59.0,29.92,SE,140,7.0,10.0,89,-99.99,,,-99.99,,2013-05-16 04:02:00,
2013-05-15 23:12:00,63.0,59.0,29.91,SE,145,6.0,9.0,89,-99.99,,,-99.99,,2013-05-16 04:12:00,
2013-05-15 23:23:00,63.0,59.0,29.91,SE,145,6.0,9.0,89,-99.99,,,-99.99,,2013-05-16 04:23:00,
2013-05-15 23:33:00,63.0,60.0,29.90,SSE,150,9.0,12.0,89,-99.99,,,-99.99,,2013-05-16 04:33:00,
2013-05-15 23:42:00,63.0,60.0,29.90,SE,145,10.0,13.0,89,-99.99,,,-99.99,,2013-05-16 04:42:00,
2013-05-15 23:53:00,63.0,60.0,29.90,SE,145,10.0,13.0,89,-99.99,,,-99.99,,2013-05-16 04:53:00,